Showing default

HAWK-11B, 62379

Orbit data source: Space-Track

HAWK-11B, 62379 is a payload satellite owned by HawkEye 360 (US) in LEO that was launched on Sat, 21 Dec 2024 UTC via an FALCON 9 launch vehicle from the Air Force Western Test Range (AFWTR). Payloads include a variety of satellites, spacecraft, and rockets equipped with specific instruments for various scientific and technological missions. These include communications satellites like Starlink; space stations such as the ISS; scientific satellites like the Hubble; Earth observation satellites from companies like Planet Labs, Umbra, and HawkEye 360; GPS; miniature CubeSats for education and research; and military/defense satellites.

Loading next visibility...
HAWK-11B details
Identifier
62379, 2024-247C
Orbit
LEO
Last TLE update1 day ago
Origin
Flag of USHawkEye 360 (US)
ManufacturerUTIAS-SFL
MissionOperational Commercial Technology
Bus & MotorHAWK2G, Unknown motor
Mass31 kg wet, 30 kg dry
Launch date (UTC)
2024-12-21 (2 months ago)
Launch vehicle
FALCON 9
Launch site
Air Force Western Test Range (AFWTR)
Object type
Payload
Rocket body
Debris
Shape & HBRBox + 2 Pan, 4.5 m
Radar Cross Section1.240 m², Medium (>0.1 m² and < 1m²)

Expand to show TLE details & history

TLE from 1 day ago
0 HAWK-11B
1 62379U 24247C   25035.24179464  .00017528  00000-0  81452-3 0  9994
2 62379  45.0102 119.7304 0003492 280.1687  79.8799 15.19810817  6956
Epoch: 2025-02-04T05:48Z
Definitive object data (Epoch: 2025-02-04T05:48:11.056Z)
Latitude-0.00006°
Longitude-101.96563°
Altitude505.99 km
Speed7.613 km/s
True Right ascension07h 58m 55s
True Declination0° 00' 00"
Sunlit
Object was in full shadow at TLE epoch
Visualization TLE readout
Latitude-29.72791°
Longitude-142.18624°
Altitude512.354 km
Speed7.609 km/s
Apparent Right ascension01h 50m 15s
Apparent Declination-56° 06' 02"
Sunlit
Object is in daylight
Visualization observer readout
Local Sidereal Time08:53:09
Azimuth224.854° SW
Elevation-40.432°
Doppler factor1
Orbital elements
Apogee altitude510.419 km
Perigee altitude505.609 km
Semi-major axis6,886.151 km
Eccentricity0.0003492
Inclination45.0102°
RAAN119.7304°
Arg. of periapsis280.1687°
True anomaly79.9193°
Mean anomaly79.8799°
Eccentric anomaly79.8996°
Mean motion3.7982 °/min
BSTAR0.00081452
Orbital period94.78 mins
Loading maneuver chart data...
Loading historical data...
Loading historical data...
Loading historical data...
Loading historical data...
Loading historical data...
Loading historical data...
Loading historical data...

HAWK-11B Visibility forecast

Observer location: undefined°, undefined

Span
Click to sort rows by Start time (UTC) header in descending order
Start Az.
Max El. time (UTC)
Max El. Az.
Max El.
End time (UTC)
End Az.
6 mins2025-02-05 08:50:55.264Z227.42° WSW2025-02-05 08:52:55.264Z173.512° S41.556°2025-02-05 08:56:55.264Z70.588° E
6 mins2025-02-05 10:29:55.264Z282.034° WNW2025-02-05 10:32:55.264Z5.327° NNE34.314°2025-02-05 10:35:55.264Z61.021° ENE
6 mins2025-02-05 12:09:55.264Z304.902° NW2025-02-05 12:11:55.264Z348.407° N32.468°2025-02-05 12:15:55.264Z79.42° E
5 mins2025-02-05 13:49:55.264Z288.729° WNW2025-02-05 13:51:55.264Z200.441° SSW44.379°2025-02-05 13:54:55.264Z121.054° SE
|